<?xml version="1.0" encoding="UTF-8" standalone="no" ?>
<gpx xmlns="http://www.topografix.com/GPX/1/1" xmlns:xsi="http://www.w3.org/2001/XMLSchema-instance" xsi:schemaLocation="http://www.topografix.com/GPX/1/1 http://www.topografix.com/GPX/1/1/gpx.xsd" version="1.1" creator="VisuGPX - https://www.visugpx.com">
  <metadata>
    <name>GEOCACHES</name>
    <desc><![CDATA[comment ...]]></desc>
  </metadata>
  <trk>
    <name><![CDATA[VAUMALE parcours]]></name>
    <cmt><![CDATA[17:41:26]]></cmt>
    <desc><![CDATA[comment ...]]></desc>
    <trkseg>
      <trkpt lat="43.94563" lon="5.26617">
        <ele>349.1</ele>
        <time>2020-02-21T16:41:26Z</time>
      </trkpt>
      <trkpt lat="43.94563" lon="5.26617">
        <ele>349.1</ele>
        <time>2020-02-21T16:41:26Z</time>
      </trkpt>
      <trkpt lat="43.94565" lon="5.26628">
        <ele>349.8</ele>
        <time>2020-02-21T16:41:26Z</time>
      </trkpt>
      <trkpt lat="43.94563" lon="5.26669">
        <ele>351.1</ele>
        <time>2020-02-21T16:41:26Z</time>
      </trkpt>
      <trkpt lat="43.94564" lon="5.26681">
        <ele>351.4</ele>
        <time>2020-02-21T16:41:26Z</time>
      </trkpt>
      <trkpt lat="43.9456" lon="5.26711">
        <ele>350.2</ele>
        <time>2020-02-21T16:41:26Z</time>
      </trkpt>
      <trkpt lat="43.94592" lon="5.26884">
        <ele>342</ele>
        <time>2020-02-21T16:41:26Z</time>
      </trkpt>
      <trkpt lat="43.94599" lon="5.26897">
        <ele>341.3</ele>
        <time>2020-02-21T16:41:26Z</time>
      </trkpt>
      <trkpt lat="43.94615" lon="5.26948">
        <ele>335.5</ele>
        <time>2020-02-21T16:41:26Z</time>
      </trkpt>
      <trkpt lat="43.94613" lon="5.2696">
        <ele>333.1</ele>
        <time>2020-02-21T16:41:26Z</time>
      </trkpt>
      <trkpt lat="43.94618" lon="5.26969">
        <ele>329.8</ele>
        <time>2020-02-21T16:41:26Z</time>
      </trkpt>
      <trkpt lat="43.94623" lon="5.26994">
        <ele>323.2</ele>
        <time>2020-02-21T16:41:26Z</time>
      </trkpt>
      <trkpt lat="43.94613" lon="5.27">
        <ele>322</ele>
        <time>2020-02-21T16:41:26Z</time>
      </trkpt>
      <trkpt lat="43.94629" lon="5.27005">
        <ele>323.1</ele>
        <time>2020-02-21T16:41:26Z</time>
      </trkpt>
      <trkpt lat="43.94637" lon="5.26991">
        <ele>322.5</ele>
        <time>2020-02-21T16:41:26Z</time>
      </trkpt>
      <trkpt lat="43.94637" lon="5.26991">
        <ele>322.5</ele>
        <time>2020-02-21T16:41:26Z</time>
      </trkpt>
      <trkpt lat="43.94658" lon="5.26933">
        <ele>329.5</ele>
        <time>2020-02-21T16:41:26Z</time>
      </trkpt>
      <trkpt lat="43.94669" lon="5.2692">
        <ele>326.3</ele>
        <time>2020-02-21T16:41:26Z</time>
      </trkpt>
      <trkpt lat="43.94687" lon="5.26909">
        <ele>328.3</ele>
        <time>2020-02-21T16:41:26Z</time>
      </trkpt>
      <trkpt lat="43.94696" lon="5.2691">
        <ele>328.4</ele>
        <time>2020-02-21T16:41:26Z</time>
      </trkpt>
      <trkpt lat="43.94705" lon="5.26899">
        <ele>334.3</ele>
        <time>2020-02-21T16:41:26Z</time>
      </trkpt>
      <trkpt lat="43.94734" lon="5.26844">
        <ele>338.1</ele>
        <time>2020-02-21T16:41:26Z</time>
      </trkpt>
      <trkpt lat="43.94743" lon="5.2681">
        <ele>339</ele>
        <time>2020-02-21T16:41:26Z</time>
      </trkpt>
      <trkpt lat="43.94786" lon="5.26709">
        <ele>341.8</ele>
        <time>2020-02-21T16:41:26Z</time>
      </trkpt>
      <trkpt lat="43.94793" lon="5.2667">
        <ele>344</ele>
        <time>2020-02-21T16:41:26Z</time>
      </trkpt>
      <trkpt lat="43.94808" lon="5.26631">
        <ele>339.9</ele>
        <time>2020-02-21T16:41:26Z</time>
      </trkpt>
      <trkpt lat="43.94814" lon="5.26621">
        <ele>343.4</ele>
        <time>2020-02-21T16:41:26Z</time>
      </trkpt>
      <trkpt lat="43.94814" lon="5.26621">
        <ele>343.4</ele>
        <time>2020-02-21T16:41:26Z</time>
      </trkpt>
      <trkpt lat="43.94828" lon="5.26602">
        <ele>344.5</ele>
        <time>2020-02-21T16:41:26Z</time>
      </trkpt>
      <trkpt lat="43.94838" lon="5.26593">
        <ele>343.7</ele>
        <time>2020-02-21T16:41:26Z</time>
      </trkpt>
      <trkpt lat="43.9491" lon="5.2657">
        <ele>351.6</ele>
        <time>2020-02-21T16:41:26Z</time>
      </trkpt>
      <trkpt lat="43.94999" lon="5.26563">
        <ele>356.5</ele>
        <time>2020-02-21T16:41:26Z</time>
      </trkpt>
      <trkpt lat="43.95013" lon="5.26555">
        <ele>355.3</ele>
        <time>2020-02-21T16:41:26Z</time>
      </trkpt>
      <trkpt lat="43.95023" lon="5.26566">
        <ele>355.6</ele>
        <time>2020-02-21T16:41:26Z</time>
      </trkpt>
      <trkpt lat="43.95024" lon="5.26586">
        <ele>355.6</ele>
        <time>2020-02-21T16:41:26Z</time>
      </trkpt>
      <trkpt lat="43.95029" lon="5.26598">
        <ele>360.8</ele>
        <time>2020-02-21T16:41:26Z</time>
      </trkpt>
      <trkpt lat="43.95099" lon="5.26576">
        <ele>357.5</ele>
        <time>2020-02-21T16:41:26Z</time>
      </trkpt>
      <trkpt lat="43.95128" lon="5.26587">
        <ele>358.6</ele>
        <time>2020-02-21T16:41:26Z</time>
      </trkpt>
      <trkpt lat="43.95139" lon="5.26578">
        <ele>357.6</ele>
        <time>2020-02-21T16:41:26Z</time>
      </trkpt>
      <trkpt lat="43.95139" lon="5.26578">
        <ele>357.6</ele>
        <time>2020-02-21T16:41:26Z</time>
      </trkpt>
      <trkpt lat="43.95147" lon="5.26564">
        <ele>361.8</ele>
        <time>2020-02-21T16:41:26Z</time>
      </trkpt>
      <trkpt lat="43.9516" lon="5.26554">
        <ele>358</ele>
        <time>2020-02-21T16:41:26Z</time>
      </trkpt>
      <trkpt lat="43.95222" lon="5.26545">
        <ele>364.1</ele>
        <time>2020-02-21T16:41:26Z</time>
      </trkpt>
      <trkpt lat="43.95238" lon="5.26546">
        <ele>364.4</ele>
        <time>2020-02-21T16:41:26Z</time>
      </trkpt>
      <trkpt lat="43.95279" lon="5.26563">
        <ele>365.6</ele>
        <time>2020-02-21T16:41:26Z</time>
      </trkpt>
      <trkpt lat="43.95369" lon="5.26559">
        <ele>365.9</ele>
        <time>2020-02-21T16:41:26Z</time>
      </trkpt>
      <trkpt lat="43.95381" lon="5.2655">
        <ele>367.2</ele>
        <time>2020-02-21T16:41:26Z</time>
      </trkpt>
      <trkpt lat="43.95392" lon="5.26556">
        <ele>368.3</ele>
        <time>2020-02-21T16:41:26Z</time>
      </trkpt>
      <trkpt lat="43.95448" lon="5.26621">
        <ele>372.8</ele>
        <time>2020-02-21T16:41:26Z</time>
      </trkpt>
      <trkpt lat="43.9546" lon="5.2663">
        <ele>373.5</ele>
        <time>2020-02-21T16:41:26Z</time>
      </trkpt>
      <trkpt lat="43.9546" lon="5.2663">
        <ele>373.5</ele>
        <time>2020-02-21T16:41:26Z</time>
      </trkpt>
      <trkpt lat="43.95488" lon="5.26641">
        <ele>373.6</ele>
        <time>2020-02-21T16:41:26Z</time>
      </trkpt>
      <trkpt lat="43.95518" lon="5.26663">
        <ele>374.1</ele>
        <time>2020-02-21T16:41:26Z</time>
      </trkpt>
      <trkpt lat="43.95531" lon="5.26667">
        <ele>372.4</ele>
        <time>2020-02-21T16:41:26Z</time>
      </trkpt>
      <trkpt lat="43.95559" lon="5.26669">
        <ele>375.6</ele>
        <time>2020-02-21T16:41:26Z</time>
      </trkpt>
      <trkpt lat="43.95585" lon="5.26687">
        <ele>377.2</ele>
        <time>2020-02-21T16:41:26Z</time>
      </trkpt>
      <trkpt lat="43.95596" lon="5.26687">
        <ele>379.6</ele>
        <time>2020-02-21T16:41:26Z</time>
      </trkpt>
      <trkpt lat="43.95621" lon="5.26674">
        <ele>380.8</ele>
        <time>2020-02-21T16:41:26Z</time>
      </trkpt>
      <trkpt lat="43.95648" lon="5.26665">
        <ele>381.2</ele>
        <time>2020-02-21T16:41:26Z</time>
      </trkpt>
      <trkpt lat="43.95704" lon="5.26644">
        <ele>389.8</ele>
        <time>2020-02-21T16:41:26Z</time>
      </trkpt>
      <trkpt lat="43.95714" lon="5.26654">
        <ele>390.3</ele>
        <time>2020-02-21T16:41:26Z</time>
      </trkpt>
      <trkpt lat="43.95723" lon="5.26678">
        <ele>392.4</ele>
        <time>2020-02-21T16:41:26Z</time>
      </trkpt>
      <trkpt lat="43.9573" lon="5.26685">
        <ele>397.5</ele>
        <time>2020-02-21T16:41:26Z</time>
      </trkpt>
      <trkpt lat="43.95741" lon="5.26682">
        <ele>401.3</ele>
        <time>2020-02-21T16:41:26Z</time>
      </trkpt>
      <trkpt lat="43.95753" lon="5.26684">
        <ele>404.5</ele>
        <time>2020-02-21T16:41:26Z</time>
      </trkpt>
      <trkpt lat="43.95764" lon="5.26697">
        <ele>401.9</ele>
        <time>2020-02-21T16:41:26Z</time>
      </trkpt>
      <trkpt lat="43.95775" lon="5.26693">
        <ele>400.7</ele>
        <time>2020-02-21T16:41:26Z</time>
      </trkpt>
      <trkpt lat="43.95775" lon="5.26693">
        <ele>400.7</ele>
        <time>2020-02-21T16:41:26Z</time>
      </trkpt>
      <trkpt lat="43.95805" lon="5.26675">
        <ele>405.5</ele>
        <time>2020-02-21T16:41:26Z</time>
      </trkpt>
      <trkpt lat="43.95817" lon="5.26671">
        <ele>406.6</ele>
        <time>2020-02-21T16:41:26Z</time>
      </trkpt>
      <trkpt lat="43.95842" lon="5.26681">
        <ele>410</ele>
        <time>2020-02-21T16:41:26Z</time>
      </trkpt>
      <trkpt lat="43.95863" lon="5.26671">
        <ele>409</ele>
        <time>2020-02-21T16:41:26Z</time>
      </trkpt>
      <trkpt lat="43.95889" lon="5.26668">
        <ele>409.5</ele>
        <time>2020-02-21T16:41:26Z</time>
      </trkpt>
      <trkpt lat="43.95917" lon="5.26649">
        <ele>416.4</ele>
        <time>2020-02-21T16:41:26Z</time>
      </trkpt>
      <trkpt lat="43.95954" lon="5.26636">
        <ele>416.4</ele>
        <time>2020-02-21T16:41:26Z</time>
      </trkpt>
      <trkpt lat="43.95977" lon="5.26648">
        <ele>419.3</ele>
        <time>2020-02-21T16:41:26Z</time>
      </trkpt>
      <trkpt lat="43.95977" lon="5.26648">
        <ele>419.3</ele>
        <time>2020-02-21T16:41:26Z</time>
      </trkpt>
      <trkpt lat="43.96008" lon="5.26619">
        <ele>421</ele>
        <time>2020-02-21T16:41:26Z</time>
      </trkpt>
      <trkpt lat="43.96008" lon="5.26619">
        <ele>421</ele>
        <time>2020-02-21T16:41:26Z</time>
      </trkpt>
      <trkpt lat="43.96021" lon="5.26608">
        <ele>421.4</ele>
        <time>2020-02-21T16:41:26Z</time>
      </trkpt>
      <trkpt lat="43.96049" lon="5.266">
        <ele>425.8</ele>
        <time>2020-02-21T16:41:26Z</time>
      </trkpt>
      <trkpt lat="43.96059" lon="5.26603">
        <ele>426.1</ele>
        <time>2020-02-21T16:41:26Z</time>
      </trkpt>
      <trkpt lat="43.96079" lon="5.26592">
        <ele>426.6</ele>
        <time>2020-02-21T16:41:26Z</time>
      </trkpt>
      <trkpt lat="43.96088" lon="5.26578">
        <ele>429.3</ele>
        <time>2020-02-21T16:41:26Z</time>
      </trkpt>
      <trkpt lat="43.9609" lon="5.26558">
        <ele>438.7</ele>
        <time>2020-02-21T16:41:26Z</time>
      </trkpt>
      <trkpt lat="43.96097" lon="5.26538">
        <ele>437</ele>
        <time>2020-02-21T16:41:26Z</time>
      </trkpt>
      <trkpt lat="43.96106" lon="5.26523">
        <ele>434.9</ele>
        <time>2020-02-21T16:41:26Z</time>
      </trkpt>
      <trkpt lat="43.96117" lon="5.26514">
        <ele>436.4</ele>
        <time>2020-02-21T16:41:26Z</time>
      </trkpt>
      <trkpt lat="43.9613" lon="5.26513">
        <ele>437.9</ele>
        <time>2020-02-21T16:41:26Z</time>
      </trkpt>
      <trkpt lat="43.96169" lon="5.2649">
        <ele>434.4</ele>
        <time>2020-02-21T16:41:26Z</time>
      </trkpt>
      <trkpt lat="43.96171" lon="5.26483">
        <ele>435.2</ele>
        <time>2020-02-21T16:41:26Z</time>
      </trkpt>
      <trkpt lat="43.96171" lon="5.26483">
        <ele>435.2</ele>
        <time>2020-02-21T16:41:26Z</time>
      </trkpt>
      <trkpt lat="43.96175" lon="5.26456">
        <ele>440.6</ele>
        <time>2020-02-21T16:41:26Z</time>
      </trkpt>
      <trkpt lat="43.96163" lon="5.26461">
        <ele>441.7</ele>
        <time>2020-02-21T16:41:26Z</time>
      </trkpt>
      <trkpt lat="43.96168" lon="5.26446">
        <ele>446.1</ele>
        <time>2020-02-21T16:41:26Z</time>
      </trkpt>
      <trkpt lat="43.96153" lon="5.26447">
        <ele>451.3</ele>
        <time>2020-02-21T16:41:26Z</time>
      </trkpt>
      <trkpt lat="43.96157" lon="5.2643">
        <ele>458.1</ele>
        <time>2020-02-21T16:41:26Z</time>
      </trkpt>
      <trkpt lat="43.96146" lon="5.26422">
        <ele>465.8</ele>
        <time>2020-02-21T16:41:26Z</time>
      </trkpt>
      <trkpt lat="43.96105" lon="5.26426">
        <ele>474.7</ele>
        <time>2020-02-21T16:41:26Z</time>
      </trkpt>
      <trkpt lat="43.96053" lon="5.26384">
        <ele>486.5</ele>
        <time>2020-02-21T16:41:26Z</time>
      </trkpt>
      <trkpt lat="43.9604" lon="5.26378">
        <ele>488.1</ele>
        <time>2020-02-21T16:41:26Z</time>
      </trkpt>
      <trkpt lat="43.9604" lon="5.26378">
        <ele>488.1</ele>
        <time>2020-02-21T16:41:26Z</time>
      </trkpt>
      <trkpt lat="43.96006" lon="5.26372">
        <ele>492.2</ele>
        <time>2020-02-21T16:41:26Z</time>
      </trkpt>
      <trkpt lat="43.95897" lon="5.26307">
        <ele>501</ele>
        <time>2020-02-21T16:41:26Z</time>
      </trkpt>
      <trkpt lat="43.95852" lon="5.26252">
        <ele>503.3</ele>
        <time>2020-02-21T16:41:26Z</time>
      </trkpt>
      <trkpt lat="43.95838" lon="5.26224">
        <ele>503.7</ele>
        <time>2020-02-21T16:41:26Z</time>
      </trkpt>
      <trkpt lat="43.95835" lon="5.26208">
        <ele>503.4</ele>
        <time>2020-02-21T16:41:26Z</time>
      </trkpt>
      <trkpt lat="43.95837" lon="5.26193">
        <ele>502.9</ele>
        <time>2020-02-21T16:41:26Z</time>
      </trkpt>
      <trkpt lat="43.95855" lon="5.26174">
        <ele>503.4</ele>
        <time>2020-02-21T16:41:26Z</time>
      </trkpt>
      <trkpt lat="43.95861" lon="5.26165">
        <ele>504.1</ele>
        <time>2020-02-21T16:41:26Z</time>
      </trkpt>
      <trkpt lat="43.95763" lon="5.25959">
        <ele>498.4</ele>
        <time>2020-02-21T16:41:26Z</time>
      </trkpt>
      <trkpt lat="43.95763" lon="5.25959">
        <ele>498.4</ele>
        <time>2020-02-21T16:41:26Z</time>
      </trkpt>
      <trkpt lat="43.95748" lon="5.2593">
        <ele>497.4</ele>
        <time>2020-02-21T16:41:26Z</time>
      </trkpt>
      <trkpt lat="43.95729" lon="5.25855">
        <ele>494.9</ele>
        <time>2020-02-21T16:41:26Z</time>
      </trkpt>
      <trkpt lat="43.95731" lon="5.25786">
        <ele>493.6</ele>
        <time>2020-02-21T16:41:26Z</time>
      </trkpt>
      <trkpt lat="43.95741" lon="5.25639">
        <ele>488.4</ele>
        <time>2020-02-21T16:41:26Z</time>
      </trkpt>
      <trkpt lat="43.95754" lon="5.25585">
        <ele>485.4</ele>
        <time>2020-02-21T16:41:26Z</time>
      </trkpt>
      <trkpt lat="43.95754" lon="5.25585">
        <ele>485.4</ele>
        <time>2020-02-21T16:41:26Z</time>
      </trkpt>
      <trkpt lat="43.95755" lon="5.25574">
        <ele>484.5</ele>
        <time>2020-02-21T16:41:26Z</time>
      </trkpt>
      <trkpt lat="43.95696" lon="5.25594">
        <ele>483.5</ele>
        <time>2020-02-21T16:41:26Z</time>
      </trkpt>
      <trkpt lat="43.95681" lon="5.25606">
        <ele>482.7</ele>
        <time>2020-02-21T16:41:26Z</time>
      </trkpt>
      <trkpt lat="43.95576" lon="5.25775">
        <ele>481.2</ele>
        <time>2020-02-21T16:41:26Z</time>
      </trkpt>
      <trkpt lat="43.95566" lon="5.25803">
        <ele>480.7</ele>
        <time>2020-02-21T16:41:26Z</time>
      </trkpt>
      <trkpt lat="43.95563" lon="5.25823">
        <ele>482.1</ele>
        <time>2020-02-21T16:41:26Z</time>
      </trkpt>
      <trkpt lat="43.95547" lon="5.25874">
        <ele>482.3</ele>
        <time>2020-02-21T16:41:26Z</time>
      </trkpt>
      <trkpt lat="43.95539" lon="5.25924">
        <ele>481.5</ele>
        <time>2020-02-21T16:41:26Z</time>
      </trkpt>
      <trkpt lat="43.95531" lon="5.25939">
        <ele>479.2</ele>
        <time>2020-02-21T16:41:26Z</time>
      </trkpt>
      <trkpt lat="43.95531" lon="5.25939">
        <ele>479.2</ele>
        <time>2020-02-21T16:41:26Z</time>
      </trkpt>
      <trkpt lat="43.95492" lon="5.25982">
        <ele>474.1</ele>
        <time>2020-02-21T16:41:26Z</time>
      </trkpt>
      <trkpt lat="43.95481" lon="5.2598">
        <ele>473.6</ele>
        <time>2020-02-21T16:41:26Z</time>
      </trkpt>
      <trkpt lat="43.95464" lon="5.25966">
        <ele>472.2</ele>
        <time>2020-02-21T16:41:26Z</time>
      </trkpt>
      <trkpt lat="43.95455" lon="5.25951">
        <ele>471</ele>
        <time>2020-02-21T16:41:26Z</time>
      </trkpt>
      <trkpt lat="43.95455" lon="5.25951">
        <ele>471</ele>
        <time>2020-02-21T16:41:26Z</time>
      </trkpt>
      <trkpt lat="43.95449" lon="5.25944">
        <ele>470.2</ele>
        <time>2020-02-21T16:41:26Z</time>
      </trkpt>
      <trkpt lat="43.95427" lon="5.25954">
        <ele>468.7</ele>
        <time>2020-02-21T16:41:26Z</time>
      </trkpt>
      <trkpt lat="43.95417" lon="5.25948">
        <ele>467.9</ele>
        <time>2020-02-21T16:41:26Z</time>
      </trkpt>
      <trkpt lat="43.95411" lon="5.2594">
        <ele>466.5</ele>
        <time>2020-02-21T16:41:26Z</time>
      </trkpt>
      <trkpt lat="43.95399" lon="5.25933">
        <ele>464.9</ele>
        <time>2020-02-21T16:41:26Z</time>
      </trkpt>
      <trkpt lat="43.95366" lon="5.25925">
        <ele>462.3</ele>
        <time>2020-02-21T16:41:26Z</time>
      </trkpt>
      <trkpt lat="43.95341" lon="5.25932">
        <ele>458.9</ele>
        <time>2020-02-21T16:41:26Z</time>
      </trkpt>
      <trkpt lat="43.9533" lon="5.25933">
        <ele>457.5</ele>
        <time>2020-02-21T16:41:26Z</time>
      </trkpt>
      <trkpt lat="43.95309" lon="5.25948">
        <ele>454.3</ele>
        <time>2020-02-21T16:41:26Z</time>
      </trkpt>
      <trkpt lat="43.95302" lon="5.25961">
        <ele>452.9</ele>
        <time>2020-02-21T16:41:26Z</time>
      </trkpt>
      <trkpt lat="43.95298" lon="5.26003">
        <ele>450</ele>
        <time>2020-02-21T16:41:26Z</time>
      </trkpt>
      <trkpt lat="43.95291" lon="5.26033">
        <ele>447.1</ele>
        <time>2020-02-21T16:41:26Z</time>
      </trkpt>
      <trkpt lat="43.95274" lon="5.26156">
        <ele>438.9</ele>
        <time>2020-02-21T16:41:26Z</time>
      </trkpt>
      <trkpt lat="43.9525" lon="5.2624">
        <ele>433.4</ele>
        <time>2020-02-21T16:41:26Z</time>
      </trkpt>
      <trkpt lat="43.95244" lon="5.2625">
        <ele>432.2</ele>
        <time>2020-02-21T16:41:26Z</time>
      </trkpt>
      <trkpt lat="43.95238" lon="5.26257">
        <ele>430.8</ele>
        <time>2020-02-21T16:41:26Z</time>
      </trkpt>
      <trkpt lat="43.95238" lon="5.26257">
        <ele>430.8</ele>
        <time>2020-02-21T16:41:26Z</time>
      </trkpt>
      <trkpt lat="43.95224" lon="5.26257">
        <ele>429.1</ele>
        <time>2020-02-21T16:41:26Z</time>
      </trkpt>
      <trkpt lat="43.9516" lon="5.26181">
        <ele>423.2</ele>
        <time>2020-02-21T16:41:26Z</time>
      </trkpt>
      <trkpt lat="43.95149" lon="5.26157">
        <ele>421.8</ele>
        <time>2020-02-21T16:41:26Z</time>
      </trkpt>
      <trkpt lat="43.95147" lon="5.26147">
        <ele>421.1</ele>
        <time>2020-02-21T16:41:26Z</time>
      </trkpt>
      <trkpt lat="43.95126" lon="5.26142">
        <ele>418.6</ele>
        <time>2020-02-21T16:41:26Z</time>
      </trkpt>
      <trkpt lat="43.95077" lon="5.26156">
        <ele>412.2</ele>
        <time>2020-02-21T16:41:26Z</time>
      </trkpt>
      <trkpt lat="43.95048" lon="5.26154">
        <ele>409.7</ele>
        <time>2020-02-21T16:41:26Z</time>
      </trkpt>
      <trkpt lat="43.95027" lon="5.26149">
        <ele>407.6</ele>
        <time>2020-02-21T16:41:26Z</time>
      </trkpt>
      <trkpt lat="43.95018" lon="5.26215">
        <ele>404.2</ele>
        <time>2020-02-21T16:41:26Z</time>
      </trkpt>
      <trkpt lat="43.95011" lon="5.26232">
        <ele>403</ele>
        <time>2020-02-21T16:41:26Z</time>
      </trkpt>
      <trkpt lat="43.94964" lon="5.26288">
        <ele>395.7</ele>
        <time>2020-02-21T16:41:26Z</time>
      </trkpt>
      <trkpt lat="43.9495" lon="5.26293">
        <ele>394.1</ele>
        <time>2020-02-21T16:41:26Z</time>
      </trkpt>
      <trkpt lat="43.94945" lon="5.26308">
        <ele>393</ele>
        <time>2020-02-21T16:41:26Z</time>
      </trkpt>
      <trkpt lat="43.94942" lon="5.26321">
        <ele>392.7</ele>
        <time>2020-02-21T16:41:26Z</time>
      </trkpt>
      <trkpt lat="43.94938" lon="5.26331">
        <ele>392.1</ele>
        <time>2020-02-21T16:41:26Z</time>
      </trkpt>
      <trkpt lat="43.94938" lon="5.26331">
        <ele>392.1</ele>
        <time>2020-02-21T16:41:26Z</time>
      </trkpt>
      <trkpt lat="43.94903" lon="5.26353">
        <ele>387.7</ele>
        <time>2020-02-21T16:41:26Z</time>
      </trkpt>
      <trkpt lat="43.94848" lon="5.26361">
        <ele>382.1</ele>
        <time>2020-02-21T16:41:26Z</time>
      </trkpt>
      <trkpt lat="43.94751" lon="5.26425">
        <ele>372.5</ele>
        <time>2020-02-21T16:41:26Z</time>
      </trkpt>
      <trkpt lat="43.94728" lon="5.26433">
        <ele>370</ele>
        <time>2020-02-21T16:41:26Z</time>
      </trkpt>
      <trkpt lat="43.94705" lon="5.26485">
        <ele>365.3</ele>
        <time>2020-02-21T16:41:26Z</time>
      </trkpt>
      <trkpt lat="43.94699" lon="5.26492">
        <ele>364.6</ele>
        <time>2020-02-21T16:41:26Z</time>
      </trkpt>
      <trkpt lat="43.94693" lon="5.26507">
        <ele>363.4</ele>
        <time>2020-02-21T16:41:26Z</time>
      </trkpt>
      <trkpt lat="43.94688" lon="5.26514">
        <ele>362.5</ele>
        <time>2020-02-21T16:41:26Z</time>
      </trkpt>
      <trkpt lat="43.9464" lon="5.26525">
        <ele>358.3</ele>
        <time>2020-02-21T16:41:26Z</time>
      </trkpt>
      <trkpt lat="43.94607" lon="5.26519">
        <ele>355.8</ele>
        <time>2020-02-21T16:41:26Z</time>
      </trkpt>
      <trkpt lat="43.94596" lon="5.26509">
        <ele>355.1</ele>
        <time>2020-02-21T16:41:26Z</time>
      </trkpt>
      <trkpt lat="43.94583" lon="5.26486">
        <ele>353.9</ele>
        <time>2020-02-21T16:41:26Z</time>
      </trkpt>
      <trkpt lat="43.94583" lon="5.26486">
        <ele>353.9</ele>
        <time>2020-02-21T16:41:26Z</time>
      </trkpt>
      <trkpt lat="43.94577" lon="5.26497">
        <ele>353</ele>
        <time>2020-02-21T16:41:26Z</time>
      </trkpt>
      <trkpt lat="43.94564" lon="5.26605">
        <ele>348.9</ele>
        <time>2020-02-21T16:41:26Z</time>
      </trkpt>
    </trkseg>
  </trk>
</gpx>